Flight Track Log - Related Links

Times and Time Zones

All times are in EDT time to prevent confusion due to time zone crossing. See the UAL623 flight status page for this flight to view local times or setup timezone preferences in your user account.

Time Position Orientation Groundspeed Altitude Reporting Facility
EDT Latitude Longitude Course Direction KTS MPH feet Rate Location/Type
Tue 06:34:45 PM 38.8000 -77.0333 270° West 175 201 2,100  Level Potomac TRACON
Tue 06:35:40 PM 38.7500 -77.0500 195° South 227 261 4,100 1,930 Climbing Potomac TRACON
Tue 06:36:40 PM 38.7333 -77.1333 256° West 259 298 5,800 2,500 Climbing Potomac TRACON
Tue 06:37:00 PM 38.8500 -77.5749 270° West  Level FlightAware Approximate
Tue 06:37:40 PM 38.7167 -77.2333 258° West 266 306 9,100  Level Potomac TRACON
Tue 06:38:00 PM 38.8501 -77.7103 270° West  Level FlightAware Approximate
Tue 06:39:00 PM 38.8501 -77.8457 270° West  Level FlightAware Approximate
Tue 06:39:54 PM 38.7997 -77.4108 301° West 291 335 15,000  Level Washington Center
Tue 06:40:55 PM 38.8061 -77.5231 274° West 296 341 17,000 992 Climbing Washington Center
Tue 06:41:55 PM 38.8128 -77.6350 274° West 308 354 17,000 50 Level Washington Center
Tue 06:42:56 PM 38.8172 -77.7258 274° West 320 368 17,100 1,008 Climbing Washington Center
Tue 06:43:54 PM 38.8294 -77.8594 277° West 325 374 19,000 1,932 Climbing Washington Center
Tue 06:44:54 PM 38.8378 -77.9689 276° West 330 380 20,900 1,488 Climbing Washington Center
Tue 06:45:55 PM 38.8456 -78.0944 275° West 336 387 22,000 1,240 Climbing Washington Center
Tue 06:46:55 PM 38.8533 -78.2253 274° West 357 411 23,400 1,488 Climbing Washington Center
Tue 06:47:56 PM 38.8522 -78.3611 269° West 379 436 25,000 1,488 Climbing Washington Center
Tue 06:48:56 PM 38.8511 -78.5025 269° West 391 450 26,400 1,475 Climbing Washington Center
Tue 06:49:54 PM 38.8494 -78.6492 269° West 402 463 27,900 1,563 Climbing Washington Center
Tue 06:50:55 PM 38.8478 -78.7956 269° West 408 470 29,500 1,289 Climbing Washington Center
Tue 06:51:55 PM 38.8439 -78.9447 268° West 418 481 30,500 1,311 Climbing Washington Center
Tue 06:52:54 PM 38.8417 -79.0939 269° West 423 487 32,100 1,250 Climbing Washington Center
Tue 06:53:55 PM 38.8392 -79.2456 269° West 423 487 33,000 590 Climbing Washington Center
Tue 06:54:56 PM 38.8386 -79.4003 270° West 423 487 33,300 793 Climbing Washington Center
Tue 06:55:56 PM 38.8347 -79.5839 269° West 453 521 34,600 1,220 Climbing Washington Center
Tue 06:56:54 PM 38.8314 -79.7383 268° West 458 527 35,700 706 Climbing Washington Center
Tue 06:57:55 PM 38.8281 -79.8928 268° West 458 527 36,000 140 Climbing Washington Center
Tue 06:59:03 PM 38.8211 -80.0558 267° West 434 499 36,000  Level Indianapolis Center
Tue 07:00:04 PM 38.8172 -80.2147 268° West 445 512 36,000  Level Indianapolis Center
Tue 07:01:06 PM 38.8133 -80.3719 268° West 444 511 36,000  Level Indianapolis Center
Tue 07:02:08 PM 38.8086 -80.5264 268° West 435 501 36,000 -48 Level Indianapolis Center
Tue 07:03:10 PM 38.8036 -80.6819 268° West 435 501 35,900  Descending Indianapolis Center
Tue 07:04:11 PM 38.7981 -80.8692 268° West 438 504 36,000 49 Climbing Indianapolis Center
Tue 07:05:13 PM 38.7925 -81.0244 267° West 438 504 36,000  Level Indianapolis Center
Tue 07:06:26 PM 38.7875 -81.1814 268° West 442 509 36,000  Level Indianapolis Center
Tue 07:07:28 PM 38.7817 -81.3692 268° West 443 510 36,000  Level Indianapolis Center
Tue 07:08:30 PM 38.7739 -81.5431 267° West 448 516 36,000  Level Indianapolis Center
Tue 07:09:32 PM 38.7681 -81.7131 268° West 452 520 36,000  Level Indianapolis Center
Tue 07:10:33 PM 38.7614 -81.8722 267° West 452 520 36,000  Level Indianapolis Center
Tue 07:11:35 PM 38.7550 -82.0292 267° West 444 511 36,000  Level Indianapolis Center
Tue 07:12:36 PM 38.7483 -82.1894 267° West 450 518 36,000  Level Indianapolis Center
Tue 07:13:38 PM 38.7433 -82.3472 268° West 448 516 36,000  Level Indianapolis Center
Tue 07:14:40 PM 38.7353 -82.5078 266° West 452 520 36,000  Level Indianapolis Center
Tue 07:15:41 PM 38.7294 -82.6714 267° West 458 527 36,000  Level Indianapolis Center
Tue 07:16:43 PM 38.7225 -82.8372 267° West 465 535 36,000  Level Indianapolis Center
Tue 07:17:44 PM 38.7139 -83.0364 267° West 467 537 36,000 -49 Level Indianapolis Center
Tue 07:18:46 PM 38.7067 -83.1811 266° West 459 528 35,900 -48 Descending Indianapolis Center
Tue 07:19:48 PM 38.7389 -83.3394 285° West 456 525 35,900  Level Indianapolis Center
Tue 07:20:49 PM 38.7900 -83.5158 290° West 450 518 35,900  Level Indianapolis Center
Tue 07:21:51 PM 38.8333 -83.6686 290° West 451 519 35,900  Level Indianapolis Center
Tue 07:22:53 PM 38.8756 -83.8214 290° West 450 518 35,900 49 Level Indianapolis Center
Tue 07:23:54 PM 38.9192 -83.9758 290° West 453 521 36,000  Climbing Indianapolis Center
Tue 07:24:56 PM 38.9622 -84.1333 289° West 462 532 35,900 -48 Descending Indianapolis Center
Tue 07:25:58 PM 39.0056 -84.2883 290° West 458 527 35,900 -146 Level Indianapolis Center
Tue 07:26:59 PM 39.0475 -84.4422 289° West 452 520 35,600 -634 Descending Indianapolis Center
Tue 07:28:01 PM 39.1139 -84.5778 302° West 443 510 34,600 -1,463 Descending Indianapolis Center
Tue 07:29:02 PM 39.2222 -84.6431 335° Northwest 423 487 32,600 -2,098 Descending Indianapolis Center
Tue 07:30:04 PM 39.3381 -84.7042 338° Northwest 443 510 30,300 -2,081 Descending Indianapolis Center
Tue 07:31:06 PM 39.4167 -84.8344 308° West 464 534 28,300 -1,122 Descending Indianapolis Center
Tue 07:32:07 PM 39.4650 -84.9922 292° West 445 512 28,000 -146 Descending Indianapolis Center
Tue 07:33:09 PM 39.5256 -85.1281 300° West 458 527 28,000  Level Indianapolis Center
Tue 07:34:11 PM 39.6367 -85.2039 332° Northwest 456 525 28,000  Level Indianapolis Center
Tue 07:35:12 PM 39.7756 -85.2808 337° Northwest 456 525 28,000  Level Indianapolis Center
Tue 07:36:14 PM 39.8925 -85.3444 337° Northwest 458 527 28,000  Level Indianapolis Center
Tue 07:37:16 PM 40.0117 -85.4036 339° North 460 529 28,000 -537 Level Indianapolis Center
Tue 07:38:17 PM 40.1286 -85.4636 339° North 456 525 26,900 -1,122 Descending Indianapolis Center
Tue 07:39:19 PM 40.2408 -85.5203 339° North 440 506 25,700 -1,122 Descending Indianapolis Center
Tue 07:40:20 PM 40.3528 -85.5786 338° Northwest 436 502 24,600 -976 Descending Indianapolis Center
Tue 07:41:22 PM 40.4722 -85.6867 325° Northwest 437 503 23,700 -774 Descending Indianapolis Center
Tue 07:42:24 PM 40.5672 -85.7736 325° Northwest 425 489 23,000 -780 Descending Indianapolis Center
Tue 07:43:25 PM 40.6597 -85.8589 325° Northwest 411 473 22,100 -927 Descending Indianapolis Center
Tue 07:44:27 PM 40.7517 -85.9439 325° Northwest 406 467 21,100 -968 Descending Indianapolis Center
Tue 07:45:29 PM 40.8464 -86.0317 325° Northwest 416 479 20,100 -927 Descending Indianapolis Center
Tue 07:46:30 PM 40.9397 -86.1186 325° Northwest 414 476 19,200 -927 Descending Indianapolis Center
Tue 07:47:32 PM 41.0331 -86.2042 325° Northwest 412 474 18,200 -968 Descending Indianapolis Center
Tue 07:48:34 PM 41.1411 -86.3061 325° Northwest 401 461 17,200 -474 Descending Indianapolis Center
Tue 07:50:04 PM 41.2636 -86.4214 325° Northwest 389 448 17,000 -158 Descending Chicago Center
Tue 07:51:06 PM 41.3528 -86.5064 324° Northwest 393 452 16,800 -823 Descending Chicago Center
Tue 07:52:08 PM 41.4414 -86.5892 325° Northwest 389 448 15,300 -1,597 Descending Chicago Center
Tue 07:53:10 PM 41.5450 -86.6881 324° Northwest 382 440 13,500 -1,500 Descending Chicago Center
Tue 07:54:12 PM 41.6194 -86.7586 325° Northwest 374 430 12,200 -726 Descending Chicago Center
Tue 07:55:14 PM 41.7258 -86.8039 342° North 337 388 12,000 -97 Descending Chicago Center
Tue 07:56:16 PM 41.8061 -86.8156 354° North 299 344 12,000  Level Chicago Center
Tue 07:57:17 PM 41.8822 -86.8500 341° North 300 345 12,000 -585 Level Chicago Center
Tue 07:58:19 PM 41.9078 -86.9442 290° West 279 321 10,800 -1,258 Descending Chicago Center
Tue 07:59:21 PM 41.9275 -87.0419 285° West 276 318 9,400 -871 Descending Chicago Center
Tue 08:00:23 PM 41.9517 -87.1536 286° West 264 304 9,000 -194 Descending Chicago Center
Tue 08:01:25 PM 41.9697 -87.2397 286° West 244 281 9,000  Level Chicago Center
Tue 08:02:27 PM 41.9839 -87.3144 284° West 215 247 9,000 -339 Level Chicago Center
Tue 08:03:29 PM 41.9839 -87.3831 270° West 193 222 8,300 -871 Descending Chicago Center
Tue 08:04:31 PM 41.9822 -87.4392 268° West 162 186 7,200 -1,016 Descending Chicago Center
Tue 08:05:33 PM 41.9819 -87.5103 270° West 159 183 6,200 -919 Descending Chicago Center
Tue 08:06:35 PM 41.9833 -87.5692 272° West 159 183 5,300 -823 Descending Chicago Center
Tue 08:07:37 PM 41.9828 -87.6264 269° West 155 178 4,500 -829 Descending Chicago Center
Tue 08:08:38 PM 41.9842 -87.6842 272° West 155 178 3,600 -878 Descending Chicago Center
Tue 08:09:40 PM 41.9839 -87.7425 270° West 156 180 2,700 -871 Descending Chicago Center
Tue 08:10:42 PM 41.9836 -87.8136 270° West 158 182 1,800 -677 Descending Chicago Center
Tue 08:11:44 PM 41.9833 -87.8544 269° West 153 176 1,300 -484 Descending Chicago Center
Tue 08:13:00 PM 41.9667 -87.9000 270° West  Level FlightAware Approximate
Tue 08:20:00 PM 41.9817 -87.9067 270° West  Level Estimated

Login

Don't have an account? Register now (free) for customized features, flight alerts, and more!